sat.trackr.live / text

‹ back to catalog

ICEYE-X47

NORAD 62389 · 2024-247N

PAYLOAD ACTIVE UNKNOWN

§ Identity

Operator
Country
FIN
Launch date
2024-12-21
Launch site
AFWTR
Launch vehicle
Mass (kg)
RCS (m²)

External: N2YO · Heavens-Above · Gunter

§ Orbital elements

Epoch: 2026-09-22T05:28:47.612640Z

Period
95.12 min
Inclination
44.9956°
Eccentricity
0.0000817
Mean motion
15.13918494 rev/d
Perigee alt
523.7 km
Apogee alt
524.8 km
Semi-major
6,902.4 km
B*
1.3131e-4
RAAN
198.4342°
Arg perigee
59.2893°
Mean anomaly
300.8065°
Rev number
9,688

§ Raw data

ICEYE-X471 62389U 24247N   26265.22832885  .00002161  00000+0  13131-3 0  99972 62389  44.9956 198.4342 0000817  59.2893 300.8065 15.13918494 96888

JSON: /api/v1/satellites/62389 · /tle

For live sub-satellite position, see the globe view (requires WebGL).

§ Visibility from observer

Set your observer location to see the next 7 days of passes ≥ 10°. The values pass through the URL so the page stays shareable.

No JS? Fill the form by hand. The geolocation button needs JavaScript.

§ Radio — SatNOGS DB

ModeDescriptionDownlinkUplink
DVB-S2 8PSK 2/3 8.240 GHz–8.360 GHz

1 transmitter · refreshed weekly from db.satnogs.org